Chattanooga, TN

9:02 AM EDT on April 26, 2018 (GMT -0400)
Lovell

Weather History for KCHA - December, 2014

Change the Weather History Date:

Thursday, December 4, 2014

  Actual Average Record
Temperature  
Mean Temperature 57 °F 45 °F  
Max Temperature 66 °F 55 °F 76 °F (1998)
Min Temperature 47 °F 35 °F 15 °F (1895)
Degree Days  
Heating Degree Days 8 20  
Month to date heating degree days 29 78  
Since 1 July heating degree days 705 667  
Cooling Degree Days 0 0  
Month to date cooling degree days 0 0  
Year to date cooling degree days 1910 1741  
Growing Degree Days 6 (Base 50)    
Moisture  
Dew Point 47 °F    
Average Humidity 75    
Maximum Humidity 93    
Minimum Humidity 56    
Precipitation  
Precipitation 0.00 in 0.18 in 2.45 in (1912)
Month to date precipitation 0.14 0.71  
Year to date precipitation 41.02 48.29  
Snow  
Snow 0.00 in 0.00 in - ()
Month to date snowfall 0.0 0.0  
Since 1 July snowfall T T  
Snow Depth 0.00 in    
Sea Level Pressure  
Sea Level Pressure 30.28 in    
Wind  
Wind Speed 2 mph (North)    
Max Wind Speed 7 mph    
Max Gust Speed 8 mph    
Visibility 10 miles    
Events      
T = Trace of Precipitation, MM = Missing Value Source: NWS Daily Summary

Daily Weather History Graph

Daily Weather History Graph

Search for Another Location

Airport or City:

Astronomy

Dec. 04, 2014 Rise Set
Actual Time 7:33 AM EST 5:28 PM EST
Civil Twilight 7:05 AM EST 5:56 PM EST
Nautical Twilight 6:33 AM EST 6:28 PM EST
Astronomical Twilight 6:03 AM EST 6:58 PM EST
Moon 4:26 PM EST (12/4) 5:28 AM EST (12/4)
Length of Visible Light 10h 51m
Length of Day
9h 55m
Waxing Gibbous, 96% of the Moon is Illuminated
Dec 4
Waxing Gibbous
Dec 6
Full
Dec 14
Last Quarter
Dec 21
New
Dec 28
First Quarter

Hourly Weather History & Observations

Time (EST) Temp. Dew Point Humidity Pressure Visibility Wind Dir Wind Speed Gust Speed Precip Events Conditions
12:53 AM 50.0 °F 46.4 °F 87% 30.28 in 10.0 mi Calm Calm - N/A   Clear
1:53 AM 48.9 °F 46.0 °F 90% 30.27 in 10.0 mi Calm Calm - N/A   Clear
2:53 AM 48.0 °F 46.0 °F 93% 30.28 in 10.0 mi Calm Calm - N/A   Clear
3:53 AM 46.9 °F 45.0 °F 93% 30.29 in 10.0 mi Calm Calm - N/A   Scattered Clouds
4:53 AM 48.0 °F 45.0 °F 89% 30.30 in 10.0 mi North 4.6 mph - N/A   Overcast
5:53 AM 48.9 °F 44.1 °F 83% 30.30 in 10.0 mi North 5.8 mph - N/A   Mostly Cloudy
6:53 AM 48.0 °F 43.0 °F 83% 30.30 in 10.0 mi NNE 5.8 mph - N/A   Mostly Cloudy
7:53 AM 48.0 °F 43.0 °F 83% 30.31 in 10.0 mi NNE 4.6 mph - N/A   Mostly Cloudy
8:53 AM 50.0 °F 43.0 °F 77% 30.32 in 10.0 mi Calm Calm - N/A   Mostly Cloudy
9:53 AM 51.1 °F 43.0 °F 74% 30.34 in 10.0 mi Calm Calm - N/A   Mostly Cloudy
10:53 AM 53.1 °F 44.1 °F 71% 30.33 in 10.0 mi Calm Calm - N/A   Mostly Cloudy
11:53 AM 55.4 °F 44.6 °F 67% 30.31 in 10.0 mi Calm Calm - N/A   Mostly Cloudy
12:53 PM 60.1 °F 46.9 °F 62% 30.27 in 10.0 mi West 3.5 mph - N/A   Mostly Cloudy
1:53 PM 62.1 °F 48.0 °F 60% 30.25 in 10.0 mi North 3.5 mph - N/A   Mostly Cloudy
2:53 PM 64.0 °F 48.9 °F 58% 30.22 in 10.0 mi Calm Calm - N/A   Mostly Cloudy
3:53 PM 64.0 °F 51.1 °F 63% 30.22 in 10.0 mi North 4.6 mph - N/A   Mostly Cloudy
4:53 PM 64.0 °F 51.1 °F 63% 30.22 in 10.0 mi NE 3.5 mph - N/A   Mostly Cloudy
5:53 PM 61.0 °F 50.0 °F 67% 30.23 in 10.0 mi Calm Calm - N/A   Mostly Cloudy
6:53 PM 55.9 °F 50.0 °F 80% 30.25 in 10.0 mi Calm Calm - N/A   Mostly Cloudy
7:53 PM 53.1 °F 50.0 °F 89% 30.26 in 10.0 mi Calm Calm - N/A   Mostly Cloudy
8:53 PM 52.0 °F 48.9 °F 89% 30.27 in 10.0 mi North 3.5 mph - N/A   Scattered Clouds
9:53 PM 51.1 °F 48.9 °F 92% 30.27 in 9.0 mi Calm Calm - N/A   Mostly Cloudy
10:53 PM 52.0 °F 48.9 °F 89% 30.27 in 8.0 mi Calm Calm - N/A   Mostly Cloudy
11:53 PM 52.0 °F 48.0 °F 86% 30.27 in 8.0 mi Calm Calm - N/A   Mostly Cloudy